TimeIST,TemperatureF,Dew PointF,Humidity,Sea Level PressureIn,VisibilityMPH,Wind Direction,Wind SpeedMPH,Gust SpeedMPH,PrecipitationIn,Events,Conditions,WindDirDegrees,DateUTC
12:20 AM,55.4,44.6,67,30.04,-9999.0,East,4.6,-,N/A,,Clear,80,2013-03-18 22:20:00
12:50 AM,55.4,44.6,67,30.04,-9999.0,Variable,2.3,-,N/A,,Clear,0,2013-03-18 22:50:00
1:20 AM,53.6,44.6,72,30.01,-9999.0,East,5.8,-,N/A,,Clear,80,2013-03-18 23:20:00
1:50 AM,51.8,42.8,71,30.01,-9999.0,Variable,1.2,-,N/A,,Clear,0,2013-03-18 23:50:00
2:00 AM,54,44,59,30.02,6,East,4.6,,,,,80,2013-03-19 00:00:00
2:20 AM,53.6,42.8,67,30.01,-9999.0,Variable,1.2,-,N/A,,Clear,0,2013-03-19 00:20:00
2:50 AM,51.8,44.6,76,30.01,-9999.0,Variable,1.2,-,N/A,,Clear,0,2013-03-19 00:50:00
3:20 AM,51.8,44.6,76,30.01,-9999.0,Variable,2.3,-,N/A,,Clear,0,2013-03-19 01:20:00
3:50 AM,53.6,42.8,67,30.01,-9999.0,Variable,3.5,-,N/A,,Clear,0,2013-03-19 01:50:00
4:20 AM,51.8,44.6,76,30.01,-9999.0,Variable,1.2,-,N/A,,Clear,0,2013-03-19 02:20:00
4:50 AM,51.8,42.8,71,30.01,-9999.0,Variable,3.5,-,N/A,,Clear,0,2013-03-19 02:50:00
5:20 AM,53.6,42.8,67,30.01,-9999.0,East,4.6,-,N/A,,Clear,100,2013-03-19 03:20:00
5:50 AM,51.8,42.8,71,30.01,-9999.0,East,4.6,-,N/A,,Clear,100,2013-03-19 03:50:00
6:20 AM,51.8,42.8,71,29.98,-9999.0,East,5.8,-,N/A,,Clear,90,2013-03-19 04:20:00
6:50 AM,53.6,42.8,67,29.98,-9999.0,East,4.6,-,N/A,,Clear,80,2013-03-19 04:50:00
7:20 AM,53.6,42.8,67,29.98,-9999.0,Variable,2.3,-,N/A,,Clear,0,2013-03-19 05:20:00
7:50 AM,55.4,42.8,63,29.98,-9999.0,Variable,1.2,-,N/A,,Clear,0,2013-03-19 05:50:00
8:00 AM,55,43,55,29.99,6,,2.3,,,,,,2013-03-19 06:00:00
8:20 AM,57.2,42.8,59,29.98,-9999.0,Variable,3.5,-,N/A,,Clear,0,2013-03-19 06:20:00
8:50 AM,59.0,42.8,55,29.95,-9999.0,Variable,2.3,-,N/A,,Clear,0,2013-03-19 06:50:00
9:20 AM,62.6,42.8,48,29.95,-9999.0,Variable,2.3,-,N/A,,Clear,0,2013-03-19 07:20:00
9:50 AM,64.4,41.0,42,29.95,-9999.0,Variable,3.5,-,N/A,,Clear,0,2013-03-19 07:50:00
10:20 AM,66.2,39.2,37,29.95,-9999.0,Variable,3.5,-,N/A,,Clear,0,2013-03-19 08:20:00
10:50 AM,66.2,39.2,37,29.95,-9999.0,Variable,2.3,-,N/A,,Clear,0,2013-03-19 08:50:00
11:20 AM,68.0,39.2,35,29.95,-9999.0,Variable,3.5,-,N/A,,Clear,0,2013-03-19 09:20:00
11:50 AM,69.8,39.2,33,29.92,-9999.0,Variable,2.3,-,N/A,,Clear,0,2013-03-19 09:50:00
12:20 PM,69.8,39.2,33,29.92,-9999.0,WSW,5.8,-,N/A,,Clear,250,2013-03-19 10:20:00
12:50 PM,68.0,42.8,40,29.92,-9999.0,WNW,8.1,-,N/A,,Clear,290,2013-03-19 10:50:00
1:20 PM,69.8,42.8,38,29.89,-9999.0,NW,10.4,-,N/A,,Clear,320,2013-03-19 11:20:00
1:50 PM,69.8,41.0,35,29.89,-9999.0,NW,8.1,-,N/A,,Clear,310,2013-03-19 11:50:00
2:00 PM,71,42,24,29.90,6,NW,8.1,,,,Clear,310,2013-03-19 12:00:00
2:20 PM,71.6,44.6,38,29.89,-9999.0,NW,13.8,-,N/A,,Clear,310,2013-03-19 12:20:00
2:50 PM,71.6,41.0,33,29.89,-9999.0,NW,11.5,-,N/A,,Clear,320,2013-03-19 12:50:00
3:20 PM,69.8,46.4,43,29.89,-9999.0,NW,12.7,-,N/A,,Clear,320,2013-03-19 13:20:00
3:50 PM,68.0,46.4,46,29.89,-9999.0,NW,12.7,-,N/A,,Clear,320,2013-03-19 13:50:00
4:20 PM,68.0,50.0,52,29.89,-9999.0,NW,15.0,-,N/A,,Clear,320,2013-03-19 14:20:00
4:50 PM,68.0,50.0,52,29.89,-9999.0,NNW,12.7,-,N/A,,Clear,340,2013-03-19 14:50:00
5:20 PM,66.2,50.0,56,29.89,-9999.0,NNW,12.7,-,N/A,,Clear,340,2013-03-19 15:20:00
5:50 PM,64.4,51.8,64,29.89,-9999.0,North,11.5,-,N/A,,Clear,350,2013-03-19 15:50:00
6:20 PM,62.6,51.8,68,29.89,-9999.0,North,6.9,-,N/A,,Clear,360,2013-03-19 16:20:00
6:50 PM,64.4,50.0,59,29.89,-9999.0,Variable,3.5,-,N/A,,Clear,0,2013-03-19 16:50:00
7:20 PM,60.8,50.0,68,29.92,-9999.0,WNW,6.9,-,N/A,,Clear,300,2013-03-19 17:20:00
7:50 PM,60.8,50.0,68,29.92,-9999.0,NW,4.6,-,N/A,,Clear,310,2013-03-19 17:50:00
8:00 PM,61,50,57,29.93,6,NW,4.6,,,,,310,2013-03-19 18:00:00
8:20 PM,60.8,50.0,68,29.92,-9999.0,North,6.9,-,N/A,,Clear,360,2013-03-19 18:20:00
8:50 PM,60.8,50.0,68,29.92,-9999.0,North,5.8,-,N/A,,Clear,10,2013-03-19 18:50:00
9:20 PM,60.8,50.0,68,29.92,-9999.0,NE,5.8,-,N/A,,Clear,40,2013-03-19 19:20:00
9:50 PM,60.8,50.0,68,29.92,-9999.0,NE,5.8,-,N/A,,Clear,40,2013-03-19 19:50:00
10:20 PM,59.0,48.2,67,29.92,-9999.0,Variable,1.2,-,N/A,,Clear,0,2013-03-19 20:20:00
10:50 PM,59.0,48.2,67,29.92,-9999.0,Variable,2.3,-,N/A,,Clear,0,2013-03-19 20:50:00
11:20 PM,57.2,48.2,72,29.92,-9999.0,Variable,3.5,-,N/A,,Clear,0,2013-03-19 21:20:00
11:50 PM,57.2,48.2,72,29.95,-9999.0,Variable,1.2,-,N/A,,Clear,0,2013-03-19 21:50:00